CELESTIS-02 1 25160U 98007D 21016.75917242 -.00000080 00000-0 22140-4 0 9997 2 25160 107.9695 306.7811 0064616 274.5429 144.9404 14.21556260189438 CELESTIS-03 1 26034U 99070C 21016.86704607 .00002032 00000-0 12572-3 0 9995 2 26034 98.2696 332.3891 0013622 78.4986 281.7771 15.11067282142948 LACMA ENOCH 1 43777U 18099V 21017.19071065 .00012806 00000-0 90711-3 0 9993 2 43777 97.7311 95.4661 0020559 195.2902 164.7706 15.04778364116046